Temperature
13 13 13 13 13 13 13 13 13 13 13 13 13 12 12 12 12 12 12 12 12 12 12 12 12 12 12 11 11 11 11 11 11 11 11 11 11 11
13 13 13 13 13 12 12 12 12 13 13 13 12 12 12 12 12 12 12 12 12 12 12 12 11 11 11 11 11 11 11 11 11 11 11 11 11 11
13 12 12 12 12 12 12 12 12 12 12 12 12 12 12 12 12 12 11 11 11 12 12 11 11 11 11 11 11 11 11 11 11 11 11 11 11 11
12 12 12 12 12 12 12 12 12 12 12 12 12 12 12 11 11 11 11 11 11 11 11 11 11 11 11 11 11 11 11 11 11 11 11 11 11 10
12 12 12 12 12 12 12 12 12 12 12 11 11 11 11 11 11 11 11 11 11 11 11 11 11 11 11 11 11 11 11 11 11 11 10 10 10 10
12 12 12 12 12 12 11 11 11 11 11 11 11 11 11 11 11 11 10 10 10 10 10 11 11 10 10 10 10 10 10 10 10 10 10 10 10 10
12 12 12 12 12 11 11 11 11 11 11 11 11 11 11 11 10 10 10 10 10 10 10 10 10 10 10 10 10 10 10 10 10 10 10 10 10 10
11 11 11 11 11 11 11 11 11 11 11 11 11 11 11 11 10 10 10 10 10 10 10 10 10 10 10 10 10 10 10 10 10 10 10 9 9 9
11 11 11 11 11 11 11 11 11 11 11 11 11 11 10 10 10 10 10 10 10 10 10 9 9 9 9 10 10 10 10 10 9 9 9 9 9 9
11 11 11 11 11 11 11 10 10 11 11 11 10 10 10 10 10 10 10 9 9 9 9 9 9 9 9 9 10 10 9 9 9 9 9 9 9 9
11 11 11 11 11 11 10 10 10 10 10 11 10 10 10 10 10 9 9 9 9 9 9 9 9 9 9 9 9 9 9 9 9 9 8 8 8 8
10 10 10 11 11 10 10 10 10 10 10 10 10 10 10 10 10 9 9 9 9 8 9 9 9 9 8 9 9 9 9 8 8 8 8 8 8 8
10 10 10 10 10 10 10 10 10 10 10 10 10 10 10 10 9 9 9 9 8 8 9 8 8 8 8 8 8 8 8 8 8 8 8 8 8 7
9 9 10 10 10 10 10 10 10 10 9 9 9 9 9 9 9 9 9 8 8 8 8 8 8 8 8 8 8 8 8 8 7 7 7 7 7 7
9 9 9 9 9 9 10 10 9 9 9 9 9 9 9 9 8 8 8 8 8 8 8 8 8 8 8 7 7 7 7 7 7 7 7 7 7 7
8 9 9 9 9 9 9 9 9 9 9 9 8 8 8 8 8 8 8 8 8 8 8 8 8 7 7 7 7 7 7 7 7 7 7 7 7 7
8 8 8 8 8 8 8 8 8 8 8 8 8 8 8 8 8 8 8 7 7 7 7 7 7 7 7 7 7 6 6 6 6 6 6 6 6 6
7 7 7 7 7 7 7 7 7 8 8 8 7 7 7 7 7 7 7 7 7 7 7 7 7 7 6 7 7 6 6 6 6 6 6 6 6 6
7 6 6 6 6 7 7 7 7 7 7 7 7 7 7 7 7 7 6 6 6 6 6 6 6 6 6 6 6 6 6 6 6 6 5 5 5 5
6 6 6 6 6 6 6 6 6 6 6 6 6 6 6 6 6 6 6 6 6 6 6 6 6 6 6 6 6 6 6 5 5 5 5 5 5 5
6 5 6 6 6 6 6 6 6 6 6 6 6 6 6 6 6 6 6 6 6 5 6 6 6 5 5 5 5 5 5 5 5 5 4 4 4 4
5 5 5 5 5 5 5 5 5 5 5 5 5 5 5 5 5 5 5 5 5 5 5 5 5 5 5 4 4 5 5 4 4 4 4 4 4 3
4 5 5 5 5 5 5 5 4 4 5 5 5 5 5 5 5 5 5 5 5 5 5 5 4 4 4 4 4 4 4 4 4 4 3 3 3 3
Wind_Speed
6 6 5 4 4 4 4 4 4 4 3 3 2 3 4 3 3 3 2 3 2 1 0 1 1 1 1 1 1 1 1 1 1 1 2 2 2 3
5 6 5 4 4 4 4 5 5 5 4 3 3 2 3 3 3 4 2 5 3 3 2 1 1 1 1 1 1 0 0 0 0 1 1 1 1 1
6 6 6 5 4 4 4 5 5 5 5 4 2 2 3 3 3 4 3 4 3 5 4 3 2 2 1 1 1 1 1 1 1 1 1 1 1 0
7 7 6 5 6 5 4 5 5 5 5 5 3 3 4 3 3 4 4 4 3 4 5 4 3 3 2 2 1 1 2 1 1 1 0 0 0 1
8 7 7 7 7 6 6 5 4 4 5 5 4 3 4 4 4 4 4 4 4 4 5 5 5 4 4 3 3 3 3 3 2 2 2 2 2 1
7 7 7 7 7 7 6 6 5 5 5 5 5 4 4 4 4 4 4 4 4 4 4 4 5 5 6 5 5 4 4 4 4 3 3 3 2 2
7 7 7 6 6 6 5 6 6 5 5 5 5 5 5 4 5 4 4 4 4 4 4 4 4 4 5 7 7 6 5 4 4 4 4 3 3 3
7 7 7 6 6 7 7 7 7 8 8 6 6 7 7 6 5 5 5 4 4 3 4 4 3 4 4 4 5 6 6 5 5 4 4 4 4 4
7 7 6 6 7 8 8 9 9 9 9 9 8 8 7 6 6 7 6 6 5 3 4 4 4 4 4 3 5 7 7 7 6 5 5 5 4 4
7 7 7 7 7 7 8 8 9 8 9 9 9 8 6 5 6 7 6 5 4 3 4 4 4 4 3 3 6 8 8 7 7 6 6 6 5 5
7 7 8 8 5 5 8 8 8 7 6 6 6 5 4 4 5 5 5 5 5 4 4 4 4 4 4 4 4 8 8 8 7 6 6 6 6 7
5 6 6 7 5 6 8 8 9 8 6 6 6 6 7 7 8 8 7 6 5 5 4 4 4 4 4 3 3 5 7 8 9 8 8 7 7 6
5 5 4 4 5 6 8 8 8 7 6 6 5 5 5 5 6 7 7 7 6 5 4 4 4 5 4 3 3 4 4 5 6 7 9 9 8 7
5 5 4 2 4 5 6 6 5 5 5 5 5 5 5 6 6 6 6 6 6 6 5 5 4 5 5 5 4 3 4 5 5 5 5 8 9 10
5 4 4 3 4 5 5 5 5 5 6 6 6 6 5 5 5 4 5 4 4 4 6 7 6 6 6 6 5 5 4 4 5 5 5 5 5 6
4 3 3 4 4 4 3 4 4 5 5 6 6 5 4 4 5 5 5 5 5 4 4 6 7 7 6 6 6 6 5 4 5 5 5 5 5 6
4 3 3 3 3 3 3 4 4 4 5 5 5 5 5 5 5 5 5 5 6 5 5 4 5 5 6 6 6 6 6 6 5 5 5 6 6 6
3 3 3 3 4 4 4 4 4 4 5 5 5 5 6 6 6 5 6 6 7 6 6 5 4 5 5 5 6 8 7 7 6 6 6 6 6 6
4 4 4 4 4 4 5 5 5 5 5 5 5 6 6 6 6 6 7 7 7 7 6 6 6 6 7 8 6 9 8 6 6 6 6 6 7 6
4 5 5 5 5 5 5 5 5 5 5 5 5 5 6 6 6 7 7 8 7 7 7 7 7 8 9 8 6 5 10 8 6 7 6 6 6 4
4 5 5 5 5 5 5 5 5 5 5 5 5 6 6 6 6 7 7 7 8 7 8 8 7 7 6 5 5 6 6 9 8 6 6 6 6 6
4 5 5 6 5 5 5 5 5 5 5 5 5 5 6 6 7 7 7 7 7 8 8 6 5 5 6 8 8 8 6 5 6 8 7 6 5 6
4 4 5 5 5 5 5 5 6 5 5 5 5 5 6 6 6 6 7 7 7 7 7 6 5 6 7 7 8 7 8 6 4 5 6 7 9 8
Wind_Direction
236 238 238 238 237 241 244 249 262 266 261 244 225 217 218 223 188 227 219 138 151 173 237 280 331 31 73 33 29 47 43 57 70 79 69 57 60 69
233 240 239 238 235 235 237 244 254 267 266 261 249 229 214 219 209 231 216 149 179 190 199 210 207 162 107 59 25 36 292 195 163 101 74 59 60 72
225 231 233 235 233 234 233 235 241 246 250 259 249 222 218 224 207 226 222 214 188 178 185 186 181 167 142 113 75 120 144 138 125 94 69 55 50 102
229 230 231 227 233 236 232 231 233 238 240 247 241 227 228 226 225 231 227 225 218 173 185 199 201 197 199 207 212 216 205 189 179 178 190 208 258 232
232 232 233 232 232 230 230 236 237 236 238 238 240 230 228 221 225 232 234 226 223 194 193 206 207 212 215 217 218 222 223 220 214 214 230 239 242 238
234 233 233 233 236 232 232 236 237 236 238 239 237 227 225 225 224 227 231 226 226 216 208 212 204 210 219 219 217 216 217 219 218 215 226 239 244 243
233 234 234 235 252 244 240 237 234 235 236 238 238 234 229 222 227 228 231 233 230 227 222 221 215 218 215 213 213 209 207 210 211 213 220 232 244 245
238 237 233 227 226 226 238 242 241 239 239 239 240 239 239 235 231 229 230 231 241 215 229 235 231 234 229 226 190 189 203 210 215 217 218 225 238 239
240 237 234 232 225 230 223 223 233 242 247 249 247 247 244 236 231 229 229 235 245 218 224 242 231 239 228 216 182 195 207 212 216 217 220 223 230 232
243 242 242 240 231 233 235 235 236 234 235 240 248 251 249 242 234 235 238 238 248 230 226 247 239 242 234 224 184 196 205 210 212 215 219 225 229 232
251 248 247 248 232 228 240 242 240 237 227 229 248 254 254 241 235 222 219 222 239 235 223 241 242 243 243 235 199 192 199 202 207 214 222 227 234 234
255 251 249 249 236 220 236 241 244 241 232 217 220 227 229 218 210 221 224 226 237 240 218 226 235 234 245 229 212 200 203 206 210 217 223 227 230 236
255 255 252 224 230 229 240 246 250 250 239 231 223 219 218 219 216 219 225 228 233 242 222 211 231 229 239 242 230 221 220 218 214 217 216 217 218 229
258 257 256 223 236 243 242 244 241 237 235 231 226 225 222 219 219 217 218 223 236 244 229 215 233 235 239 244 244 228 224 228 227 227 224 210 211 216
264 279 285 263 244 245 236 230 225 231 229 228 230 231 230 224 219 215 213 217 228 237 234 225 229 235 242 248 246 239 235 230 227 228 226 221 220 218
266 264 248 245 244 251 244 232 233 236 235 233 232 230 225 217 215 214 213 211 222 231 235 235 229 231 240 245 245 245 240 231 223 227 229 231 229 226
272 268 268 264 250 247 247 242 237 233 233 235 232 228 223 220 220 220 220 218 227 230 227 223 224 228 241 246 244 243 241 241 235 229 229 234 234 230
252 254 256 257 256 254 250 249 244 240 239 238 235 233 228 224 221 218 218 223 230 233 232 223 215 222 234 244 237 242 240 239 236 229 231 236 240 236
235 246 253 254 255 255 254 253 251 247 243 239 235 234 233 230 225 224 222 226 233 235 233 225 218 224 237 245 224 211 233 237 233 232 232 239 246 243
241 247 252 256 258 257 258 258 256 250 242 239 239 238 235 232 230 230 228 229 233 234 234 229 226 227 237 250 253 228 216 230 232 235 236 240 249 253
247 253 258 260 260 259 257 257 257 252 247 242 242 242 239 236 237 237 235 231 234 236 237 236 234 231 240 246 246 239 222 215 233 242 240 236 241 243
260 260 262 263 261 260 260 259 257 257 254 249 246 244 242 240 239 241 240 235 233 237 243 246 233 217 223 232 240 245 242 225 221 232 241 243 246 244
266 267 268 268 267 267 265 262 260 259 257 254 250 247 244 242 241 241 241 241 239 239 240 239 230 222 228 234 240 243 241 238 235 232 237 234 239 251
Height
1541 1541 1542 1542 1542 1543 1543 1544 1545 1544 1543 1543 1543 1542 1541 1540 1540 1539 1539 1538 1537 1536 1536 1535 1535 1534 1534 1534 1533 1533 1533 1532 1532 1532 1532 1531 1531 1531
1538 1538 1539 1539 1540 1540 1540 1541 1541 1542 1541 1540 1540 1539 1539 1538 1538 1537 1537 1536 1535 1535 1534 1534 1533 1533 1532 1532 1532 1532 1532 1531 1531 1531 1531 1531 1531 1531
1535 1536 1536 1536 1537 1537 1537 1538 1538 1538 1538 1538 1538 1537 1536 1536 1535 1535 1535 1534 1534 1533 1532 1532 1531 1531 1531 1530 1530 1530 1530 1530 1530 1530 1530 1530 1530 1530
1532 1533 1533 1533 1534 1534 1534 1535 1535 1535 1535 1534 1534 1534 1534 1533 1533 1533 1533 1532 1532 1531 1530 1530 1529 1529 1529 1528 1528 1528 1528 1529 1529 1529 1529 1529 1529 1529
1529 1529 1530 1530 1530 1531 1531 1531 1531 1532 1532 1532 1531 1531 1531 1530 1530 1530 1530 1530 1529 1529 1528 1528 1527 1527 1527 1526 1526 1526 1526 1527 1527 1527 1527 1527 1527 1527
1525 1525 1526 1527 1527 1527 1528 1528 1528 1528 1528 1529 1528 1528 1528 1527 1527 1527 1527 1527 1527 1527 1526 1526 1525 1525 1524 1524 1524 1524 1524 1525 1525 1525 1525 1526 1526 1526
1521 1522 1522 1522 1523 1523 1524 1524 1525 1525 1525 1525 1525 1525 1525 1524 1525 1524 1524 1524 1524 1524 1524 1523 1523 1522 1522 1522 1522 1522 1522 1522 1523 1523 1523 1523 1523 1523
1517 1518 1518 1518 1518 1519 1519 1520 1520 1521 1521 1521 1521 1521 1521 1521 1521 1521 1521 1521 1521 1522 1521 1521 1521 1520 1520 1520 1519 1519 1519 1520 1520 1520 1521 1521 1521 1521
1514 1514 1514 1514 1514 1515 1515 1515 1515 1516 1517 1518 1517 1517 1517 1518 1518 1518 1518 1518 1518 1518 1518 1518 1518 1517 1517 1517 1516 1516 1516 1517 1517 1517 1518 1518 1518 1518
1510 1510 1510 1511 1511 1511 1511 1511 1511 1511 1512 1512 1513 1513 1513 1513 1514 1514 1514 1514 1514 1514 1515 1515 1515 1514 1514 1514 1513 1513 1513 1514 1514 1514 1514 1515 1515 1515
1505 1506 1506 1506 1507 1507 1507 1507 1507 1507 1507 1507 1508 1508 1508 1509 1509 1510 1510 1510 1510 1511 1511 1511 1511 1511 1511 1510 1510 1510 1510 1510 1511 1511 1511 1512 1512 1512
1501 1501 1501 1501 1502 1502 1503 1503 1503 1503 1503 1503 1503 1504 1504 1504 1505 1505 1506 1507 1507 1507 1507 1507 1508 1508 1508 1507 1507 1507 1507 1507 1507 1507 1508 1508 1508 1509
1496 1496 1496 1496 1497 1497 1498 1498 1498 1499 1499 1499 1499 1499 1499 1500 1500 1501 1502 1502 1503 1503 1504 1504 1504 1504 1505 1504 1503 1503 1503 1503 1504 1504 1504 1504 1505 1505
1492 1492 1492 1492 1492 1492 1492 1492 1493 1494 1494 1494 1494 1494 1495 1495 1496 1496 1497 1498 1498 1499 1499 1499 1500 1500 1501 1500 1500 1499 1499 1499 1500 1500 1500 1500 1500 1500
1487 1487 1487 1487 1487 1487 1487 1488 1488 1489 1489 1489 1489 1490 1490 1491 1491 1492 1492 1493 1494 1494 1495 1495 1495 1495 1496 1496 1496 1495 1495 1495 1495 1495 1496 1496 1496 1496
1483 1483 1483 1482 1482 1482 1482 1483 1483 1483 1484 1484 1484 1485 1486 1486 1486 1487 1487 1488 1489 1489 1490 1490 1490 1491 1491 1491 1491 1491 1491 1491 1490 1491 1491 1491 1491 1491
1479 1478 1478 1478 1478 1478 1478 1478 1478 1478 1479 1479 1479 1480 1480 1481 1481 1482 1483 1483 1484 1484 1484 1485 1485 1486 1486 1486 1486 1486 1486 1486 1486 1486 1486 1486 1486 1486
1475 1474 1474 1474 1474 1474 1473 1473 1473 1474 1474 1474 1474 1475 1476 1476 1476 1477 1478 1478 1479 1479 1480 1480 1480 1480 1481 1480 1481 1480 1480 1481 1481 1481 1481 1481 1481 1481
1470 1470 1470 1470 1470 1469 1469 1469 1469 1469 1469 1469 1469 1470 1470 1471 1471 1472 1472 1473 1473 1474 1474 1475 1475 1475 1476 1475 1474 1475 1475 1475 1475 1475 1475 1476 1476 1476
1465 1465 1466 1466 1465 1465 1465 1465 1464 1464 1464 1464 1464 1464 1465 1465 1466 1466 1466 1467 1467 1468 1468 1469 1469 1469 1470 1470 1470 1469 1469 1470 1470 1470 1470 1470 1470 1470
1461 1461 1461 1461 1461 1461 1460 1460 1460 1459 1459 1459 1459 1459 1459 1460 1460 1460 1461 1461 1462 1462 1462 1462 1462 1463 1464 1464 1464 1464 1464 1464 1465 1465 1465 1465 1465 1464
1458 1457 1457 1457 1456 1456 1455 1455 1454 1454 1454 1453 1453 1453 1453 1453 1454 1454 1455 1455 1455 1456 1456 1457 1457 1457 1458 1458 1458 1458 1459 1459 1459 1459 1459 1460 1459 1459
1454 1453 1452 1452 1451 1451 1450 1450 1449 1449 1448 1448 1447 1447 1447 1447 1447 1448 1448 1449 1449 1450 1450 1450 1451 1451 1451 1452 1452 1453 1453 1453 1453 1453 1453 1453 1454 1454